Location: The Saddle
(36.8333°N, 80.3417°W)
Time: 17:11:52
(UTC-05:00)

A-11 Canister half - Pass Details

Date: 15 December 2023
Orbit: 1526 x 1682 km, 47.3° (Epoch: 01 March)

Event Time Altitude Azimuth Distance (km) Brightness Sun altitude
Rises 15:18:02 0° 217° (SW) 4,842 13.4 16.2°
Reaches altitude 10° 15:21:11 10° 213° (SSW) 3,876 13.4 15.8°
Maximum altitude 15:30:53 59° 137° (SE) 1,882 9.7 14.4°
Drops below altitude 10° 15:40:45 10° 61° (ENE) 3,947 10.6 13.0°
Sets 15:43:59 0° 58° (ENE) 4,935 11.0 12.5°
